ICT,Max TemperatureF,Mean TemperatureF,Min TemperatureF,Max Dew PointF,MeanDew PointF,Min DewpointF,Max Humidity, Mean Humidity, Min Humidity, Max Sea Level PressureIn, Mean Sea Level PressureIn, Min Sea Level PressureIn, Max VisibilityMiles, Mean VisibilityMiles, Min VisibilityMiles, Max Wind SpeedMPH, Mean Wind SpeedMPH, Max Gust SpeedMPH,PrecipitationIn, CloudCover, Events, WindDirDegrees
2011-9-1,89,82,75,77,74,72,94,79,55,29.86,29.81,29.74,6,5,5,9,2,,0.00,6,,281
2011-9-2,87,81,75,75,74,72,94,78,62,29.89,29.82,29.77,5,5,5,13,3,,0.00,6,,273
2011-9-3,89,82,75,77,74,72,94,84,62,29.89,29.83,29.80,6,5,2,17,3,,0.00,6,Rain,284
2011-9-4,87,81,75,75,73,68,94,80,52,29.89,29.84,29.77,6,5,2,28,4,,0.00,6,Rain,270
2011-9-5,87,81,75,75,73,70,94,80,55,29.89,29.84,29.77,6,6,4,12,2,,0.00,5,Rain,259
2011-9-6,87,81,75,77,74,70,94,77,55,29.89,29.85,29.77,6,5,4,12,2,,0.00,6,,279
2011-9-7,87,82,77,75,74,72,94,77,62,29.89,29.84,29.77,6,5,3,13,3,28,0.00,6,Rain,261
2011-9-8,87,81,75,77,74,70,94,76,62,29.89,29.82,29.77,6,5,4,18,6,,0.00,6,,263
2011-9-9,87,81,75,77,74,72,94,75,62,29.89,29.82,29.77,6,5,2,17,7,,0.00,6,Rain,273
2011-9-10,86,80,75,75,74,70,94,79,66,29.86,29.79,29.71,5,4,1,23,13,34,0.00,6,Rain,265
2011-9-11,82,78,75,75,73,72,94,84,74,29.83,29.75,29.71,5,3,1,31,16,37,0.00,6,Rain,259
2011-9-12,82,78,75,75,73,72,94,81,70,29.83,29.79,29.74,5,4,1,28,16,43,0.00,6,Rain,256
2011-9-13,87,80,73,77,74,72,94,82,62,29.89,29.81,29.77,6,6,5,17,3,,0.00,6,,312
2011-9-14,82,78,75,75,74,73,94,84,74,29.92,29.85,29.80,6,5,2,16,3,18,0.00,6,Rain,291
2011-9-15,87,81,75,77,74,72,94,82,66,29.92,29.85,29.80,6,6,5,13,3,,0.00,6,,258
2011-9-16,86,80,75,77,74,73,94,79,66,29.89,29.85,29.80,6,5,5,14,3,,0.00,6,,279
2011-9-17,86,82,77,77,74,73,89,76,66,29.89,29.83,29.74,6,6,3,15,9,,0.00,5,Rain,280
2011-9-18,87,82,77,75,74,72,89,74,62,29.89,29.83,29.77,6,5,1,23,12,,0.00,6,Rain,274
2011-9-19,86,80,73,75,74,72,94,83,66,29.89,29.86,29.80,6,4,2,23,11,,0.00,6,Rain,266
2011-9-20,86,82,78,77,75,73,94,77,66,29.95,29.87,29.83,6,5,4,17,9,26,0.00,6,,269
2011-9-21,86,84,82,75,74,73,79,74,66,29.92,29.87,29.83,6,6,5,18,12,,0.00,6,,264
2011-9-22,87,84,80,75,74,73,84,75,62,29.92,29.86,29.80,6,5,4,16,8,,0.00,6,,273
2011-9-23,86,82,78,75,74,72,84,77,70,29.89,29.85,29.80,6,5,2,16,6,,0.00,6,Rain,285
2011-9-24,87,81,75,75,73,72,94,75,58,29.92,29.87,29.80,6,6,5,14,6,,0.00,6,,296
2011-9-25,86,82,77,77,74,72,89,79,66,29.92,29.87,29.83,6,5,1,15,9,,0.00,6,Rain,299
2011-9-26,80,78,75,75,73,70,94,85,78,29.92,29.84,29.77,5,4,1,29,10,17,0.00,6,Rain,282
2011-9-27,82,78,73,75,73,70,94,83,74,29.86,29.82,29.77,5,4,1,25,12,38,0.00,6,Rain,274
2011-9-28,84,80,75,75,73,72,94,80,70,29.86,29.81,29.77,5,4,1,31,13,,0.00,6,Rain,256
2011-9-29,87,82,78,75,74,72,89,76,66,29.86,29.81,29.77,5,4,2,24,9,37,0.00,6,Rain,251
2011-9-30,86,82,78,77,75,73,84,77,66,29.86,29.82,29.77,5,4,2,17,10,22,0.00,6,Rain,254